Probability
0 0 0 0 0 0 0 0 0 1 1 1 2 6 9 8 7 6 8 13 18 15 10 9 9 7 4 3 1 0 0 1 2 3 2 1 0 0 0 0 0 0 0 0 0 0 0 0 0
0 0 0 0 0 0 0 0 1 2 2 2 4 8 9 8 7 7 9 12 15 13 10 10 11 10 7 4 2 1 1 2 3 4 3 1 0 0 0 0 0 0 0 0 0 0 0 0 0
0 0 0 0 0 0 0 0 2 3 3 4 8 11 11 8 7 8 9 10 11 12 12 13 15 15 11 8 5 2 1 3 5 5 3 1 0 0 0 0 0 0 0 0 0 0 0 0 0
0 0 0 0 0 0 0 0 1 2 3 7 13 17 15 10 7 7 8 9 11 14 15 15 17 18 15 12 9 6 2 2 4 5 4 3 1 0 0 0 0 0 0 0 0 0 0 0 0
0 0 0 0 0 0 0 0 0 2 6 13 21 24 20 13 8 7 7 9 14 19 18 16 19 19 17 13 11 8 3 1 3 5 5 4 3 1 0 0 0 0 0 0 0 0 0 0 0
0 0 0 0 0 0 0 0 0 4 11 19 27 30 24 15 10 9 9 11 17 21 19 16 16 16 15 13 11 10 6 3 4 6 5 4 3 2 1 0 0 1 1 0 0 0 0 0 0
0 0 0 0 0 0 0 1 4 9 15 21 26 28 25 18 14 12 12 13 17 21 18 12 9 9 10 10 10 10 8 7 6 6 5 4 2 2 2 1 2 2 2 1 0 0 0 0 0
0 0 0 0 0 0 1 5 10 15 20 22 25 28 28 24 19 17 16 17 20 20 16 9 6 6 6 6 8 9 9 8 7 5 4 4 3 3 3 3 4 4 4 3 2 2 1 1 1
0 0 0 0 0 1 3 9 14 17 21 28 36 39 37 30 24 23 22 24 27 25 19 12 10 8 7 6 8 9 10 9 7 5 5 5 5 4 5 9 12 11 7 6 5 4 4 3 3
0 0 0 1 1 2 5 10 13 15 21 36 50 51 42 32 27 28 29 32 35 33 24 17 15 14 13 13 14 13 12 12 9 8 10 10 7 7 10 20 27 20 11 8 8 9 8 6 5
0 0 1 2 3 4 7 11 15 18 26 40 51 52 42 32 31 34 37 39 41 37 29 23 22 25 27 25 23 20 20 20 16 15 18 17 13 14 20 31 34 26 16 13 13 13 12 9 7
0 0 1 2 4 6 8 14 21 26 33 40 47 47 42 38 40 44 45 45 45 42 37 34 36 42 45 41 35 31 30 28 26 27 28 27 25 26 31 37 38 31 24 24 23 21 18 15 13
0 0 0 2 5 7 9 15 23 28 34 41 44 44 42 42 47 52 54 52 49 46 46 48 52 56 58 56 48 41 39 37 37 39 38 36 37 38 40 44 44 39 35 35 35 31 29 28 26
0 0 0 2 4 6 8 12 17 21 28 35 38 40 39 41 47 56 60 59 54 51 54 58 60 61 61 59 53 45 43 44 43 45 42 40 42 44 44 47 48 44 40 38 37 36 38 39 37
0 0 0 1 2 3 4 8 11 15 20 25 29 33 36 38 45 55 63 62 57 56 59 60 59 58 57 54 49 42 41 41 42 43 42 37 37 38 38 40 43 41 37 35 35 38 42 42 40
0 0 0 0 1 1 2 5 9 12 15 19 23 30 37 40 44 52 61 63 61 61 62 59 53 52 52 49 45 40 37 38 38 40 39 33 27 27 29 30 34 35 33 33 36 39 43 41 38
0 0 0 0 0 0 1 5 9 11 14 17 23 32 41 44 45 50 59 64 63 62 62 58 53 52 51 48 46 42 39 38 39 39 37 31 24 21 21 23 27 28 30 34 34 35 37 36 34
0 0 0 1 0 0 0 5 10 11 12 16 24 35 41 43 45 51 59 62 62 61 61 59 57 55 53 49 47 44 40 38 38 36 33 30 25 20 17 19 22 22 27 31 30 27 27 27 27
0 0 0 0 0 0 1 4 9 11 11 15 23 32 37 41 47 54 57 57 58 59 59 59 58 56 53 50 47 44 41 38 36 33 30 26 23 18 16 17 19 20 23 26 25 21 19 18 19
0 0 0 0 0 0 1 3 8 13 14 16 22 30 36 42 50 55 56 55 54 54 54 54 54 53 53 51 48 45 41 38 36 33 30 25 20 15 14 15 17 19 20 21 21 19 15 12 11
0 0 0 0 0 0 0 3 9 15 16 17 24 32 38 43 50 55 56 55 53 51 49 48 49 50 51 51 47 40 35 33 32 32 30 25 18 13 11 11 12 12 13 14 16 16 13 8 6
0 0 0 0 0 0 0 3 10 15 15 17 25 32 36 40 47 52 52 51 51 49 47 46 47 49 50 49 42 34 30 28 28 28 27 22 17 11 8 7 6 6 7 6 8 10 8 6 4
0 0 0 0 0 0 0 2 7 12 14 19 24 28 32 35 41 45 44 43 43 44 42 42 45 48 48 45 40 34 30 28 27 24 21 19 15 9 5 3 4 5 5 3 3 4 5 4 3
0 0 0 0 0 0 0 2 6 10 14 19 23 25 28 31 35 38 39 36 34 34 34 36 41 44 42 39 37 33 29 26 24 21 18 17 13 8 4 2 3 4 4 3 2 2 2 1 1
0 0 0 0 0 0 0 3 9 13 16 19 22 23 25 28 31 34 34 32 29 28 29 32 36 37 34 31 30 27 22 20 19 17 15 14 12 9 6 3 3 3 3 1 1 1 0 0 0
0 0 0 0 0 0 1 5 11 14 15 16 18 19 21 25 29 32 32 30 27 26 26 29 31 31 28 26 25 22 17 14 13 11 11 11 10 8 5 3 2 2 2 1 0 0 0 0 0
0 0 0 0 0 0 2 6 8 9 10 12 13 16 20 24 29 32 31 29 27 25 25 26 28 27 25 25 23 19 14 11 10 8 8 8 6 4 2 1 1 1 1 0 0 0 0 0 0
0 0 0 0 0 0 1 3 3 4 6 9 11 16 21 26 28 28 26 25 24 23 23 24 25 25 24 23 21 16 11 9 8 5 3 3 2 1 1 1 0 0 0 0 0 0 0 0 0
0 0 0 0 0 0 0 1 2 4 8 10 13 17 22 25 24 21 20 20 20 20 20 21 22 22 21 20 17 13 9 7 4 2 0 0 0 1 1 1 0 0 0 0 0 0 0 0 0
0 0 0 0 0 0 0 1 3 7 10 12 15 18 22 24 21 17 17 18 17 17 17 18 19 19 18 18 16 12 8 4 2 0 0 0 0 0 1 0 0 0 0 0 0 0 0 0 0
Wind_Speed
9 12 10 8 8 8 10 6 3 8 9 9 9 10 16 15 11 12 11 16 19 18 16 14 13 12 12 12 12 12 11 10 10 9 9 8 8 7 7 7 7 7 6 6 6 6 6 6 5
10 13 10 7 9 9 8 5 7 11 11 10 9 11 14 13 13 13 13 16 18 18 15 14 14 12 12 12 12 12 11 11 10 9 9 8 7 6 6 6 6 6 5 5 5 5 5 5 4
12 15 9 8 11 10 5 4 9 12 10 8 9 11 10 9 11 11 14 16 17 17 16 15 14 13 12 12 12 11 11 11 10 10 9 8 7 6 6 5 5 5 4 4 4 4 4 4 3
9 9 8 10 12 9 2 4 8 10 9 7 11 11 9 8 9 14 16 16 17 17 16 15 14 13 12 12 11 11 11 10 10 9 8 8 6 6 5 5 4 4 4 3 3 3 3 3 2
10 8 11 12 12 6 2 4 5 6 7 7 10 12 11 10 15 17 14 15 15 17 16 14 14 13 12 11 11 11 10 10 9 8 8 7 6 5 5 4 4 4 3 3 3 2 2 2 1
8 8 11 12 10 5 4 4 4 4 6 7 11 13 9 11 13 13 13 13 15 16 16 13 13 12 12 11 10 10 9 9 8 8 7 6 6 5 4 4 4 4 3 3 3 3 3 2 3
10 11 14 13 9 5 4 5 4 3 6 5 7 10 10 12 13 11 12 12 14 16 15 12 11 10 11 10 10 9 8 8 7 7 6 6 6 6 6 5 5 4 4 4 4 4 4 4 4
11 11 16 13 9 5 6 5 4 4 6 6 7 9 12 14 13 12 12 12 13 14 13 12 11 11 10 9 10 9 8 8 7 7 7 7 7 8 8 7 7 6 5 5 6 6 6 6 7
14 12 13 11 5 3 4 5 6 5 5 6 7 12 17 18 15 12 11 10 11 11 10 10 11 10 10 10 11 10 9 8 8 8 9 8 7 8 8 9 10 9 7 7 7 8 8 8 10
11 11 11 6 3 2 2 3 5 6 6 10 13 17 19 16 14 13 11 11 11 10 9 8 8 9 8 7 8 7 7 7 7 6 7 6 5 4 5 8 11 10 9 9 10 10 9 9 7
11 11 8 4 5 3 1 4 6 7 7 10 15 16 16 15 13 12 11 9 9 9 7 7 7 5 5 4 5 4 3 4 5 5 5 4 4 3 2 3 5 6 8 7 7 8 6 6 5
10 8 7 4 2 2 3 3 1 4 6 9 14 16 15 14 12 11 10 9 8 8 6 6 6 4 3 3 3 3 2 2 2 2 2 2 1 2 1 1 2 3 3 3 3 3 5 5 6
8 8 6 4 2 3 2 2 2 5 9 11 12 13 13 12 11 9 9 8 7 6 6 6 5 5 4 2 1 2 2 2 2 2 1 1 1 1 1 1 1 2 1 2 2 3 3 4 4
6 7 6 5 5 4 3 4 4 5 10 12 11 11 10 10 10 10 9 8 7 6 5 5 5 5 4 2 1 1 1 1 1 2 1 0 1 1 1 2 1 2 2 1 2 3 3 3 2
7 7 7 7 6 5 5 6 6 9 7 10 10 9 10 9 9 9 8 7 6 6 6 5 5 4 3 3 1 1 0 0 1 1 2 1 1 1 1 2 1 1 2 2 2 3 2 3 3
9 10 11 10 9 8 7 6 6 9 9 8 9 9 9 7 8 7 8 7 6 6 6 4 4 5 3 2 1 1 0 0 1 1 1 1 1 2 2 2 1 2 3 2 2 2 2 3 3
11 11 11 9 10 8 7 6 5 8 9 9 8 9 10 9 7 7 8 7 6 6 5 4 4 4 3 3 1 1 0 1 1 2 2 1 1 1 2 2 1 3 2 2 3 1 1 3 3
9 10 9 7 8 8 7 5 4 6 8 8 8 9 8 8 8 7 8 7 6 6 5 4 3 3 3 2 1 1 1 1 1 1 1 1 1 1 2 2 1 2 2 2 2 2 2 2 3
9 10 7 4 4 7 7 5 6 7 7 7 7 6 6 7 7 6 7 6 6 6 5 4 3 3 2 2 2 2 2 1 1 1 1 1 0 1 1 2 2 2 1 2 3 2 3 3 2
9 10 7 4 4 4 5 7 8 9 7 6 7 7 8 7 7 7 6 6 5 5 4 4 3 3 2 2 1 1 1 1 1 1 1 0 0 1 1 1 2 2 2 2 2 2 2 3 2
10 8 6 6 6 7 9 8 7 6 5 5 5 4 5 6 7 7 6 5 4 4 4 3 3 3 2 1 1 1 1 1 1 1 1 1 1 0 1 1 2 2 2 2 2 2 3 3 3
9 7 6 8 10 7 9 8 7 7 7 7 6 4 3 5 5 6 6 6 5 4 3 4 4 3 1 1 1 1 1 1 0 0 1 1 1 1 0 1 2 2 2 2 3 3 3 3 3
8 8 9 10 11 11 10 9 5 6 7 6 5 5 4 4 5 5 5 5 4 4 4 4 4 3 2 1 1 0 0 0 1 1 2 1 0 1 1 2 2 2 2 2 2 2 3 2 2
8 9 11 10 9 11 9 8 6 4 6 7 7 6 6 5 6 6 5 5 4 4 4 4 4 3 2 2 2 1 1 1 1 1 0 0 0 1 2 2 2 2 2 2 2 2 2 2 2
7 8 6 6 6 8 5 6 2 0 3 6 7 7 7 5 5 6 6 5 4 4 4 4 5 3 2 2 2 2 1 0 0 0 0 1 1 1 2 2 2 2 2 2 2 2 2 2 2
8 10 7 7 8 7 5 5 1 3 5 6 6 7 7 6 5 5 6 6 4 4 4 5 4 3 2 2 2 2 1 0 1 1 1 1 1 1 1 1 1 2 2 3 2 2 2 2 2
9 9 9 10 12 10 5 2 3 6 4 5 5 6 7 6 5 5 5 6 5 5 4 4 4 3 3 2 2 1 1 1 1 1 0 1 1 1 2 2 2 2 2 3 3 2 3 2 2
8 8 7 7 7 9 7 3 1 5 4 4 4 5 6 6 6 6 6 6 5 5 4 4 3 3 2 2 1 1 1 1 0 0 0 1 1 2 2 1 1 2 2 2 2 2 3 3 3
7 7 6 7 7 7 7 3 0 4 5 4 4 5 5 5 6 6 6 6 5 5 4 3 3 2 2 2 1 1 1 1 1 1 1 1 1 1 1 2 2 2 2 2 2 3 3 3 4
7 6 6 6 7 7 7 3 1 4 5 4 5 6 6 6 6 6 6 6 5 4 3 2 1 1 1 2 2 1 1 2 2 1 1 1 1 1 1 2 2 2 2 3 3 3 3 3 4
Wind_Direction
261 257 249 251 243 240 243 233 129 100 96 84 65 67 69 52 66 96 119 119 115 118 123 119 116 120 126 131 132 133 132 132 131 130 128 123 118 114 109 104 99 97 99 100 98 96 98 98 95
265 254 242 245 248 247 231 198 116 94 91 98 86 80 77 70 79 108 119 118 120 124 129 121 120 121 126 131 133 134 135 136 134 133 132 129 128 125 119 113 107 104 102 101 100 100 99 99 101
261 259 252 241 243 253 265 127 112 108 109 113 94 71 63 82 98 111 122 127 124 125 120 120 123 122 125 130 134 136 138 138 139 138 138 137 139 137 131 126 121 116 111 107 107 109 110 108 108
249 229 238 248 248 236 264 87 114 125 128 125 106 88 80 79 110 122 131 134 129 125 121 124 125 125 126 130 134 138 140 141 142 143 144 145 145 145 143 141 138 134 129 126 121 121 127 132 136
238 246 239 251 251 235 146 100 121 138 134 129 107 100 93 93 112 126 138 134 129 123 122 127 128 128 130 133 136 139 140 142 145 147 148 148 148 150 158 161 162 159 155 154 148 149 154 166 183
235 239 246 250 241 222 175 141 157 156 134 114 109 110 98 112 119 133 135 133 125 121 122 128 132 134 137 139 139 141 144 146 148 150 154 155 157 167 176 177 177 179 182 185 185 193 202 214 228
251 263 265 263 247 205 175 151 164 142 113 120 114 107 121 130 131 140 135 130 124 123 128 139 141 142 145 146 146 145 147 151 154 157 162 168 176 186 192 192 193 197 202 209 213 217 225 230 238
251 274 275 265 248 200 151 152 136 122 121 129 124 129 140 140 143 143 139 133 128 128 134 143 150 150 156 155 155 154 156 161 167 173 180 187 196 203 206 203 200 205 211 220 226 228 233 236 241
248 259 270 270 252 171 144 152 124 108 111 95 85 103 129 139 146 145 142 136 130 131 138 148 152 156 166 163 159 161 167 176 183 190 198 203 212 208 206 214 190 201 214 225 231 233 237 241 241
235 251 262 300 347 87 134 167 165 157 142 103 93 103 127 143 151 151 149 147 142 140 146 149 152 160 170 160 151 171 180 179 200 198 193 211 231 226 208 186 186 199 214 227 232 237 241 241 245
237 256 285 327 360 18 29 224 199 176 145 130 130 131 139 147 153 155 154 151 145 143 146 147 149 148 140 131 155 173 181 170 204 215 196 215 239 234 201 176 184 202 215 224 223 226 236 240 247
251 266 293 312 17 288 250 252 171 123 116 121 129 137 146 153 157 158 156 150 146 147 150 136 126 118 110 122 150 149 150 161 187 186 206 217 247 276 263 218 186 199 213 211 221 223 234 246 256
246 258 260 270 247 254 244 253 141 114 111 112 126 141 150 155 156 155 149 147 150 148 143 122 117 107 101 90 132 143 144 161 164 157 187 247 253 276 301 300 282 261 253 209 224 232 250 259 270
258 256 243 239 228 226 222 226 166 136 129 130 144 147 152 152 152 150 152 152 149 143 127 116 115 114 116 117 115 90 139 130 140 141 138 266 325 337 334 311 303 283 283 277 254 252 251 262 277
257 259 242 232 221 213 220 230 170 150 147 146 146 148 156 152 150 151 149 145 143 132 122 121 121 119 124 134 144 127 329 153 110 103 101 66 348 343 315 289 279 291 279 273 271 280 280 265 258
239 240 240 219 206 208 222 237 172 155 150 157 160 154 148 148 151 143 138 135 127 130 130 127 133 126 124 113 110 107 329 14 87 95 95 79 2 334 311 301 311 303 280 265 255 264 278 274 272
231 234 238 217 199 208 215 236 173 161 161 169 166 157 155 151 148 141 138 135 131 129 128 131 119 124 131 134 150 145 100 40 54 70 61 56 359 330 308 297 308 293 285 289 288 320 288 281 275
248 241 235 222 198 208 222 222 176 186 171 176 168 158 159 155 154 148 137 134 131 123 123 131 133 126 134 144 165 176 204 122 75 74 63 49 335 340 319 288 307 301 305 323 324 314 289 270 267
272 274 278 270 229 211 217 205 186 197 188 180 162 152 157 156 145 133 127 131 135 131 137 147 151 148 160 159 181 187 193 172 165 150 129 138 25 352 299 326 320 313 327 337 319 307 292 282 282
269 267 269 253 225 248 243 216 201 196 194 173 173 168 165 154 142 135 143 139 130 132 142 148 158 163 175 166 180 180 162 193 166 120 116 123 28 309 293 357 330 352 330 331 321 326 311 313 316
264 264 272 281 271 238 246 237 218 194 174 166 164 152 149 156 151 150 147 137 143 144 146 150 148 155 171 174 159 136 147 209 166 137 122 63 339 314 351 356 6 348 332 350 328 340 328 314 312
275 278 275 272 270 264 253 252 222 210 185 176 168 158 165 147 146 143 144 149 157 150 143 135 132 140 154 155 154 198 199 194 91 62 91 59 3 358 25 17 19 0 351 355 335 18 332 317 314
293 299 283 272 263 268 262 268 243 200 195 183 167 162 159 137 143 148 151 146 140 135 133 125 124 128 138 149 125 225 354 72 68 54 73 63 48 38 40 47 27 3 351 359 349 343 328 320 324
287 286 281 277 270 262 268 269 257 225 198 177 172 167 145 143 147 148 144 133 125 123 123 124 120 117 113 105 92 78 62 57 69 50 160 256 140 75 50 40 28 1 352 344 327 314 307 311 316
266 272 276 274 265 267 280 267 268 170 143 152 157 151 139 138 139 134 132 126 121 118 115 113 117 110 104 95 83 75 69 31 179 183 70 329 357 71 57 31 7 354 350 329 326 308 301 307 311
262 268 270 281 281 277 258 252 202 91 88 103 114 130 137 142 138 128 124 122 118 110 110 103 98 103 108 100 92 74 58 37 50 34 16 2 11 35 52 38 4 352 341 340 340 309 316 331 322
270 272 276 274 278 283 261 213 107 96 99 116 118 134 141 139 134 123 115 116 115 108 105 107 106 105 101 93 92 102 88 46 33 35 356 24 20 344 32 19 5 346 341 344 340 341 336 332 316
260 283 296 285 293 291 289 293 164 164 180 177 145 137 137 142 133 122 118 114 115 111 103 102 105 99 99 100 86 85 78 53 314 305 35 55 38 28 16 360 350 346 344 343 345 339 342 337 324
265 260 279 292 291 289 293 299 129 157 162 161 150 146 141 139 130 123 126 123 122 116 104 102 99 101 111 123 115 74 36 326 340 35 38 52 49 31 359 351 355 354 347 347 345 337 335 342 340
279 271 267 272 282 288 290 293 40 118 129 136 134 136 132 126 126 126 122 121 121 112 109 106 120 147 156 141 126 95 43 10 8 26 35 44 62 23 10 353 344 341 355 353 342 337 346 343 340